Location: Hurstbourne Priors
(51.2000°N, 1.3667°W)
Time: 18:17:16
(UTC+00:00)

Vanguard 3 - Pass Details

Date: 27 April 2021
Orbit: 508 x 3262 km, 33.3° (Epoch: 07 May)

Event Time Altitude Azimuth Distance (km) Brightness Sun altitude
Rises 22:18:30 0° 217° (SW) 5,534 11.2 -20.8°
Enters shadow 22:22:52 - 204° (SSW) 4,352 10.5 -21.1°
Reaches altitude 10° 22:24:59 10° 196° (SSW) 3,834 - -21.3°
Maximum altitude 22:29:03 13° 170° (S) 3,101 - -21.5°
Drops below altitude 10° 22:32:22 10° 143° (SE) 2,977 - -21.7°
Sets 22:36:10 0° 117° (ESE) 3,489 - -22.0°
